Погода в Мальковичах

Беларусь     52°31′53″N   26°36′08″E
темп.,
°C
ветер,
м/с
пор.,
м/с
влажн.,
%
обл.,
%
осадки,
мм/ч
давл.,
гПа
погр.,
м
9 мая, вс
вс900:00+2з38945 0.0 1019156
03:00+1зсз25965 0.0 1021100
06:00+1зсз23975 0.0 102264
09:00+8зсз22695 0.0 1024508
12:00+12з234714 0.0 10231705
15:00+14зюз343913 0.0 10232044
18:00+14юз34435 0.0 10231875
21:00+8юв226932 0.0 102430
10 мая, пн
пн1000:00+8ююв396510 0.0 1025225
03:00+5ююв39785 0.0 1025167
06:00+5ююв397698 0.0 1025185
09:00+12ююв465934 0.0 1026379
12:00+17ююв57475 0.0 10251149
15:00+19ююв56438 0.0 10241502
18:00+18юв47505 0.0 10231397
21:00+13юв4117179 0.0 1024287
11 мая, вт
вт1100:00+10юв412759 0.0 1025294
03:00+8юв3117843 0.0 1025262
06:00+7юв411810 0.0 1025275
09:00+13юв59570 0.0 1025506
12:00+17юв58400 0.0 10241081
15:00+19вюв57360 0.0 10231284
18:00+18вюв48440 0.0 10211138
21:00+12в311670 0.0 1021254
12 мая, ср
ср1200:00+11вюв413775 0.0 1021339
03:00+10вюв412920 0.0 1020333
06:00+9в399936 0.0 1019272
09:00+14вюв477022 0.0 1019659
12:00+15вюв465899 0.0 10171039
15:00+13вюв3571100 0.0 1016713
18:00+12вюв3777100 0.1 1015791
21:00+11в4108588 0.3 1015640
13 мая, чт
чт1300:00+8в412946 0.0 1014524
03:00+8всв3990100 0.0 1013532
06:00+9всв3895100 0.1 1012433
09:00+10в4687100 0.1 1010574
12:00+12вюв3473100 0.4 1009906
15:00+13юв2370100 1.1 10081151
18:00+14ююв367085 1.4 10071152
21:00+10юв3108852 1.6 1008341